Home > Time Zones > World Clock > Weather > India > Siwan > Past weeks

Flag for India Weather past 2 weeks in Siwan, Bihar, India

Now
95 °F

Haze.


Feels Like: 95 °F
Forecast: 85 / 112 °F
Wind: No wind

Location: Varanasi / Babatpur

Current Time: May 28, 2015 at 10:39:14 PM

Latest Report: May 28, 2015 at 9:00 PM


Visibility: 2 mi

Pressure: 29.53 "Hg

Humidity: 32%

Dew point: 61 °F

Location of SiwanLocation

Historic Weather in Siwan — Graph

°F

Siwan temperature yesterday

Maximum temperature yesterday: 108 °F (at 3:00 PM)
Minimum temperature yesterday: 84 °F (at 6:00 AM)
Average temperature yesterday: 95 °F

Past Weeks' High & Low Weather Summary

 TemperatureHumidityPressure
High113 °F (May 23, 1:00 PM)79% (May 26, 5:00 AM)29.80 "Hg (May 26, 5:00 AM)
Low81 °F (May 16, 5:00 AM)9% (May 23, 2:00 PM)29.36 "Hg (May 18, 6:00 PM)
Average95 °F41%29.57 "Hg
* Reported May 13 9:00 PM — May 28 9:00 PM, Siwan, Weather by CustomWeather, © 2015

Note: Actual official high and low records may vary slightly from our data, if they occured in-between our weather recording intervals... More about our weather records

Advertising

Siwan weather history for previous 24 hours

 ConditionsComfort  
Time TempWeatherWind HumidityBarometerVisibility
9:00 PM
Thu, May 28
95 °FHaze.No wind32%29.53 "Hg2 mi
8:00 PM97 °FHaze.2 mph30%29.53 "Hg2 mi
7:00 PM99 °FHaze.2 mph29%29.50 "Hg2 mi
6:00 PM104 °FHaze.3 mph24%29.50 "Hg3 mi
5:00 PM108 °FHaze.8 mph18%29.50 "Hg3 mi
4:00 PM108 °FHaze.9 mph16%29.50 "Hg3 mi
3:00 PM109 °FHaze.14 mph16%29.50 "Hg3 mi
2:00 PM108 °FHaze.9 mph19%29.53 "Hg3 mi
1:00 PM109 °FHaze.8 mph27%29.56 "Hg3 mi
10:00 AM95 °FHaze.1 mph56%29.59 "Hg3 mi
9:00 AM91 °FHaze.N/A63%29.62 "Hg2 mi
7:00 AM88 °FHaze.6 mph55%29.59 "Hg2 mi
5:00 AM86 °FHaze.3 mph59%29.53 "Hg2 mi
4:00 AM86 °FHaze.3 mph59%29.53 "Hg2 mi
12:00 AM93 °FHaze.9 mph47%29.56 "Hg3 mi
11:00 PM
Wed, May 27
95 °FHaze.8 mph44%29.56 "Hg3 mi
10:00 PM97 °FHaze.6 mph42%29.56 "Hg3 mi
Weather by CustomWeather, © 2015

See weather overviewHow to use our weather pages